Other Surface Observations
Issued by NWS Tucson, AZ

Home | Current Version | Previous Version | Text Only | Print | Product List | Glossary On
Versions: 1 2 3 4 5 6 7 8 9 10 11 12 13 14 15 16 17 18 19 20 21 22 23 24 25 26 27 28 29 30 31 32 33 34 35 36 37 38 39 40 41 42 43 44 45 46 47 48 49 50
000
SXUS55 KTWC 191415
OSOTWC

WEATHER ROUNDUP FOR SOUTHEAST ARIZONA
NATIONAL WEATHER SERVICE TUCSON AZ
715 AM MST SUN NOV 19 2017

AZZ504>506-514-191515-
LOCATION       SKY/WX    TMP DP  RH WIND       PRES   REMARKS
TUCSON         CLEAR     58  23  26 E9        30.08S
DAVIS-MONTHAN  CLEAR     51  22  33 SE9       30.06S
CHILDRENS PARK N/A      N/A N/A  54 E2                PIMA CO DEQ
ALVERNON/22ND  N/A       52 N/A N/A S3                PIMA CO DEQ
CHERRY/GLENN   N/A      N/A N/A N/A N/A               PIMA CO DEQ
TANGERINE      N/A       46 N/A N/A NE4               PIMA CO DEQ
CONTL RANCH    N/A       48  29  48 SE4               PIMA CO DEQ
GRANT/1ST      N/A       48  28  46 SE2               PIMA CO DEQ
CRAYCROFT/22ND N/A       53  26  35 SE5               PIMA CO DEQ
GOLFLINKS/KOLB N/A      N/A N/A N/A N/A               PIMA CO DEQ
AJO/12TH       N/A       46  29  52 SW3               PIMA CO DEQ
FAIRGROUNDS    N/A       58 N/A N/A SE14              PIMA CO DEQ
SAGUARO        N/A       46  26  45 N3                *SABINO CYN
SAN CARLOS     N/A       41  10  28 W2                *SAN CARLOS
GREEN VALLEY   N/A       44  30  57 S5                PIMA CO DEQ
HORSE CAMP CYN N/A       52  19  27 E17G24            *ARAVAIPA CYN
RINCON MTNS    N/A       43  11  27 E7G13             *NR MANNING CAMP
$$

AZZ509>511-191515-
LOCATION       SKY/WX    TMP DP  RH WIND       PRES   REMARKS
SAFFORD        PTCLDY    48  18  30 SE10      30.21R
STRAY HORSE    N/A       37  13  37 CALM              *
TRAIL CABIN    N/A       40   8  26 E5G11             *N OF GRANVILLE
BLACK HILLS    NOT AVBL
DRY LAKE       N/A       38   9  29 SE9G15            *NATANES MTNS
NOON CREEK     N/A       49  18  29 SW6G14            *PINALENO MTNS
COLUMBINE      N/A       25  -7  23 CALM              *PINALENO MTNS
GUTHRIE        N/A       37  19  47 E10G13            *SW OF GUTHRIE
$$

AZZ502-503-513-191515-
LOCATION       SKY/WX    TMP DP  RH WIND       PRES   REMARKS
NOGALES        CLEAR     48  27  44 NE8       30.10R
SELLS          N/A       49  25  38 E3                *
SASABE         N/A       36  26  66 SW4               *ALTAR VLY
HOPKINS        N/A       48  25  41 E10G16            *SANTA RITA MTNS
CARR CYN       N/A       52  25  34 SE3               *W OF HEREFORD
$$

AZZ507-508-512-191515-
LOCATION       SKY/WX    TMP DP  RH WIND       PRES   REMARKS
SIERRA VISTA   CLEAR     43  20  39 E5        30.17R
DOUGLAS        PTCLDY    41  20  43 N9        30.17R
EMPIRE MTNS    NOT AVBL
MULESHOE RANCH N/A       51  20  29 E10G28            *PRESERVE
HEADQUARTERS   N/A       47  20  34 E10G23            *CHIRICAHUA MTNS
$$

.............................NOTES.............................
THIS IS AN AUTOMATED COLLECTIVE WITH MINIMAL QUALITY CONTROL.
PIMA CO DEQ SITES HAVE NONSTANDARD WIND SENSOR HEIGHTS.
PIMA CO DEQ SITES DO NOT REPORT WIND GUSTS.
* INDICATES WIND SENSORS LOCATED AT 20 FEET INSTEAD OF 33 FEET.
..............................KEY..............................
SKY/WX - SKY CONDITION/WEATHER
TMP    - TEMPERATURE IN FAHRENHEIT
DP     - DEWPOINT IN FAHRENHEIT
RH     - RELATIVE HUMIDITY IN PERCENT
WIND   - DIRECTION AND SPEED IN MILES PER HOUR (MPH)
VRB    - VARIABLE WIND DIRECTION
PRES   - MEAN SEA LEVEL PRESSURE IN INCHES OF MERCURY
         F - FALLING PRESSURE   R - RISING PRESSURE
         S - STEADY PRESSURE
VSB    - VISIBILITY IN MILES
HX     - HEAT INDEX IN FAHRENHEIT
WCI    - WIND CHILL INDEX IN FAHRENHEIT
N/A    - NOT AVAILABLE
AFB    - AIR FORCE BASE
         DAVIS-MONTHAN IS DAVIS-MONTHAN AIR FORCE BASE
CYN    - CANYON
MTNS   - MOUNTAINS
NCA    - NATIONAL CONSERVATION AREA
NR     - NEAR
VLY    - VALLEY
CONTL  - CONTINENTAL
PIMA CO DEQ - PIMA COUNTY DEPT OF ENVIRONMENTAL QUALITY



USA.gov is the U.S. government's official web portal to all federal, state and local government web resources and services.